Location: ?????????
(55.6553°N, 38.9075°E)
Time: 03:11:29
(UTC+00:00)

PSLV R/B - Pass Details

Date: 18 October 2019
Orbit: 504 x 580 km, 97.8° (Epoch: 21 November)

Event Time Altitude Azimuth Distance (km) Brightness Sun altitude
Rises 03:13:49 0° 11° (N) 2,655 7.4 -7.2°
Reaches altitude 10° 03:15:59 10° 5° (N) 1,753 6.4 -6.9°
Maximum altitude 03:19:35 44° 293° (WNW) 720 4.0 -6.4°
Drops below altitude 10° 03:23:06 10° 221° (SW) 1,720 6.0 -5.9°
Sets 03:25:13 0° 214° (SW) 2,598 7.0 -5.6°
